Stations météo

réclame
Mon MeteoGroup
Inverbervie, Grande-Bretagne (3088): Température de l'air & dewpoint: 12.10.2017 04:00:00 - 18.10.2017 04:00:00 (BST)Inverbervie, Grande-Bretagne (3088): Température de l'air -20cm & Température de l'air -100cm: 12.10.2017 04:00:00 - 18.10.2017 04:00:00 (BST)Inverbervie, Grande-Bretagne (3088): Vitesse du vent & gusts: 12.10.2017 04:00:00 - 18.10.2017 04:00:00 (BST)Inverbervie, Grande-Bretagne (3088): Direction du vent: 12.10.2017 04:00:00 - 18.10.2017 04:00:00 (BST)Inverbervie, Grande-Bretagne (3088): reduced air pressure: 12.10.2017 04:00:00 - 18.10.2017 04:00:00 (BST)Inverbervie, Grande-Bretagne (3088): visibility: 12.10.2017 04:00:00 - 18.10.2017 04:00:00 (BST)Inverbervie, Grande-Bretagne (3088): Quantités de précipitations: 12.10.2017 04:00:00 - 18.10.2017 04:00:00 (BST)
Date & Time tt [°C] td [°C] tt -20cm [°C] tt -100cm [°C] ff [km/h] ff [knt] fx [km/h] fx [knt] dd ppp [hPa] vv [km] rr [mm]
18.10.2017 04:00:00 7,5 5,8 - - 21 11 - - N 1015,9 19 0,0
18.10.2017 03:00:00 7,2 5,8 - - 22 12 - - N 1016,0 20 0,0
18.10.2017 02:00:00 7,1 6,0 - - 18 10 - - N 1016,1 17 0,0
18.10.2017 01:00:00 6,9 5,8 - - 16 9 - - N 1016,0 21 0,0
18.10.2017 00:00:00 7,3 6,6 - - 15 8 - - NNW 1015,6 15 0,0
17.10.2017 23:00:00 7,6 7,0 - - 18 10 - - NNW 1015,0 16 0,0
17.10.2017 22:00:00 8,1 7,3 - - 24 13 - - N 1014,1 14 0,0
17.10.2017 21:00:00 8,7 7,8 - - 22 12 - - N 1013,7 45 0,0
17.10.2017 20:00:00 9,3 7,6 - - 28 15 - - NNW 1012,5 30 0,0
17.10.2017 19:00:00 9,7 7,9 - - 26 14 54 29 NNW 1011,7 45 0,0
17.10.2017 18:00:00 10,5 8,3 - - 31 17 46 25 NNW 1010,1 50 0,0
17.10.2017 17:00:00 11,0 8,5 - - 28 15 48 26 NW 1008,6 50 0,0
17.10.2017 16:00:00 11,8 8,9 - - 26 14 55 30 NW 1007,1 30 0,0
17.10.2017 15:00:00 13,6 9,9 - - 35 19 57 31 NW 1005,3 50 0,0
17.10.2017 14:00:00 14,5 11,2 - - 34 18 63 34 W 1003,5 28 0,0
17.10.2017 13:00:00 14,1 10,9 - - 41 22 67 36 W 1001,9 40 0,0
17.10.2017 12:00:00 13,5 10,7 - - 50 27 72 39 WSW 1000,9 50 0,0
17.10.2017 11:00:00 12,9 10,2 - - 52 28 68 37 WSW 999,5 45 0,0
17.10.2017 10:00:00 12,7 10,5 11,7 11,9 46 25 70 38 WSW 998,5 40 0,0
17.10.2017 09:00:00 12,0 10,2 - - 52 28 72 39 WSW 996,8 40 0,0
17.10.2017 08:00:00 12,4 10,2 - - 52 28 78 42 WSW 995,2 50 0,0
17.10.2017 07:00:00 11,6 10,2 - - 59 32 91 49 SW 993,4 50 0,0
17.10.2017 06:00:00 11,1 10,1 - - 65 35 94 51 SW 992,3 6 0,0
17.10.2017 05:00:00 11,8 9,5 - - 67 36 89 48 SSW 992,1 16 0,0
17.10.2017 04:00:00 12,2 10,2 - - 65 35 87 47 SSW 992,7 14 0,0
17.10.2017 03:00:00 12,6 10,8 - - 61 33 76 41 SSW 993,1 12 0,0
17.10.2017 02:00:00 12,1 11,0 - - 59 32 80 43 S 993,6 11 0,0
17.10.2017 01:00:00 12,0 10,9 - - 54 29 76 41 S 994,0 9 0,0
17.10.2017 00:00:00 12,2 10,2 - - 63 34 83 45 S 994,7 13 0,0
16.10.2017 23:00:00 12,4 10,0 - - 59 32 85 46 S 995,4 14 0,0
16.10.2017 22:00:00 12,7 9,8 - - 54 29 70 38 S 996,6 13 0,0
16.10.2017 21:00:00 13,2 10,1 - - 52 28 67 36 S 998,2 15 0,0
16.10.2017 20:00:00 12,5 12,5 - - 31 17 59 32 S 999,2 1,6 0,0
16.10.2017 19:00:00 12,5 12,5 - - 35 19 50 27 S 999,7 - -
16.10.2017 18:00:00 12,3 12,3 - - 29 16 55 30 SE 1001,3 - 0,2
16.10.2017 17:00:00 11,7 11,7 - - 41 22 54 29 E 1003,1 0,3 0,0
16.10.2017 16:00:00 11,5 11,5 - - 35 19 - - E 1005,3 0,9 0,0
16.10.2017 15:00:00 11,5 11,5 - - 31 17 - - E 1007,9 0,1 0,2
16.10.2017 14:00:00 11,4 11,4 - - 35 19 - - E 1009,2 0,1 0,0
16.10.2017 13:00:00 10,9 10,9 - - 34 18 - - ENE 1009,7 0,2 1,0
16.10.2017 12:00:00 10,0 10,0 - - 35 19 - - ENE 1011,9 0,5 3,2
16.10.2017 11:00:00 9,8 9,8 - - 24 13 - - E 1013,4 0,3 1,8
16.10.2017 10:00:00 9,8 9,8 11,7 11,9 26 14 - - E 1014,2 0,3 0,4
16.10.2017 09:00:00 9,6 9,6 - - 21 11 - - ENE 1014,0 10 0,2
16.10.2017 08:00:00 8,7 8,7 - - 22 12 - - NE 1013,8 0,3 1,0
16.10.2017 07:00:00 8,5 8,2 - - 15 8 - - NNE 1014,4 4,8 1,2
16.10.2017 06:00:00 9,2 8,5 - - 15 8 - - NE 1014,7 5 0,4
16.10.2017 05:00:00 9,8 7,7 - - 21 11 - - ENE 1014,2 50 0,0
16.10.2017 04:00:00 9,7 7,9 - - 15 8 - - ENE 1014,5 35 0,2
16.10.2017 03:00:00 9,9 7,6 - - 13 7 - - NE 1014,7 35 0,0
16.10.2017 02:00:00 10,1 7,3 - - 13 7 - - NE 1014,8 50 0,0
16.10.2017 01:00:00 10,2 6,8 - - 13 7 - - NNE 1014,8 45 0,0
16.10.2017 00:00:00 10,6 6,2 - - 5 3 - - N 1013,9 45 0,0
15.10.2017 23:00:00 10,5 6,5 - - 5 3 - - N 1013,5 50 0,0
15.10.2017 22:00:00 10,9 6,7 - - 15 8 - - NW 1012,6 45 0,0
15.10.2017 21:00:00 11,1 7,3 - - 16 9 - - WNW 1011,8 50 0,0
15.10.2017 20:00:00 11,9 7,5 - - 21 11 - - WNW 1011,0 50 0,0
15.10.2017 19:00:00 13,7 9,0 - - 24 13 - - W 1009,6 50 0,0
15.10.2017 18:00:00 14,7 10,7 - - 34 18 65 35 WSW 1007,9 26 0,0
15.10.2017 17:00:00 16,4 11,4 - - 50 27 72 39 WSW 1006,2 29 0,0
15.10.2017 16:00:00 15,7 12,8 - - 42 23 55 30 SW 1005,3 25 0,0
15.10.2017 15:00:00 13,7 12,4 - - 44 24 61 33 SSW 1005,6 12 0,0
15.10.2017 14:00:00 13,9 12,5 - - 50 27 61 33 SW 1005,6 15 0,0
15.10.2017 13:00:00 13,2 11,7 - - 46 25 61 33 SSW 1005,8 10 0,0
15.10.2017 12:00:00 13,2 11,6 - - 54 29 67 36 SSW 1005,8 13 0,0
15.10.2017 11:00:00 13,4 11,4 - - 54 29 65 35 SSW 1005,8 14 0,0
15.10.2017 10:00:00 12,8 11,2 11,7 11,9 52 28 63 34 SSW 1006,5 12 0,0
15.10.2017 09:00:00 13,0 11,1 - - 39 21 55 30 SSW 1007,2 16 0,0
15.10.2017 08:00:00 13,3 10,6 - - 42 23 67 36 SSW 1007,3 21 0,0
15.10.2017 07:00:00 13,8 10,5 - - 37 20 52 28 SSW 1007,3 35 0,0
15.10.2017 06:00:00 13,0 11,1 - - 35 19 50 27 S 1008,4 13 0,0
15.10.2017 05:00:00 12,8 11,4 - - 28 15 65 35 SSW 1009,2 14 0,0
15.10.2017 04:00:00 13,2 11,5 - - 42 23 54 29 S 1009,8 24 0,0
15.10.2017 03:00:00 13,1 11,4 - - 35 19 48 26 SSW 1010,9 16 0,0
15.10.2017 02:00:00 13,4 11,1 - - 41 22 57 31 SW 1011,2 25 0,0
15.10.2017 01:00:00 13,1 11,2 - - 39 21 55 30 SW 1012,2 22 0,0
15.10.2017 00:00:00 11,5 10,8 - - 21 11 - - SSW 1013,3 13 0,0
14.10.2017 23:00:00 11,3 10,9 - - 18 10 - - S 1014,2 10 0,0
14.10.2017 22:00:00 11,0 10,3 - - 24 13 - - S 1015,0 11 0,0
14.10.2017 21:00:00 10,6 8,7 - - 16 9 - - SSW 1015,6 25 0,0
14.10.2017 20:00:00 10,7 8,2 - - 13 7 - - WSW 1016,3 30 0,0
14.10.2017 19:00:00 11,2 8,2 - - 24 13 - - WSW 1016,1 40 0,0
14.10.2017 18:00:00 11,4 8,2 - - 28 15 - - SW 1015,7 30 0,0
14.10.2017 17:00:00 12,2 8,6 - - 22 12 - - SW 1015,6 21 0,0
14.10.2017 16:00:00 12,5 8,7 - - 24 13 - - SW 1015,6 23 0,0
14.10.2017 15:00:00 13,0 9,0 - - 18 10 - - SW 1015,2 25 0,0
14.10.2017 14:00:00 12,5 8,7 - - 28 15 - - SW 1015,0 17 0,0
14.10.2017 13:00:00 12,5 9,9 - - 24 13 - - SSW 1014,6 19 0,0
14.10.2017 12:00:00 12,2 10,3 - - 24 13 - - SSW 1014,5 20 0,0
14.10.2017 11:00:00 11,0 9,3 - - 22 12 - - SW 1014,6 13 0,0
14.10.2017 10:00:00 10,3 8,5 11,7 12,0 21 11 - - SW 1014,4 14 0,0
14.10.2017 09:00:00 8,9 7,9 - - 9 5 - - W 1014,1 13 0,0
14.10.2017 08:00:00 9,1 7,9 - - 22 12 - - SW 1013,4 16 0,0
14.10.2017 07:00:00 9,0 7,9 - - 16 9 - - WSW 1013,3 16 0,0
14.10.2017 06:00:00 9,4 8,7 - - 18 10 - - WSW 1012,6 19 0,0
14.10.2017 05:00:00 9,5 8,5 - - 16 9 - - WSW 1012,5 16 0,0
14.10.2017 04:00:00 9,5 8,4 - - 18 10 - - WSW 1012,0 15 0,0
14.10.2017 03:00:00 10,1 8,7 - - 26 14 - - SW 1011,7 18 0,0
14.10.2017 02:00:00 10,3 8,6 - - 31 17 - - SW 1011,3 21 0,0
14.10.2017 01:00:00 10,2 8,4 - - 31 17 - - SW 1011,0 21 0,0
14.10.2017 00:00:00 10,8 9,6 - - 22 12 - - SW 1010,7 21 0,0
13.10.2017 23:00:00 11,5 10,8 - - 22 12 - - SW 1010,2 15 0,0
13.10.2017 22:00:00 11,9 10,9 - - 26 14 - - SSW 1009,5 14 0,0
13.10.2017 21:00:00 11,9 10,4 - - 29 16 - - SSW 1009,6 13 0,0
13.10.2017 20:00:00 11,6 9,5 - - 26 14 - - SSW 1009,3 14 0,0
13.10.2017 19:00:00 12,3 9,1 - - 28 15 - - SW 1008,5 25 0,0
13.10.2017 18:00:00 12,7 10,1 - - 21 11 61 33 SW 1007,8 17 0,0
13.10.2017 17:00:00 14,4 9,2 - - 41 22 57 31 SW 1006,7 23 0,0
13.10.2017 16:00:00 14,8 9,7 - - 42 23 61 33 WSW 1005,9 29 0,0
13.10.2017 15:00:00 14,9 11,4 - - 41 22 55 30 WSW 1005,4 45 0,0
13.10.2017 14:00:00 14,9 13,5 - - 48 26 67 36 WSW 1004,5 7 1,0
13.10.2017 13:00:00 15,2 14,8 - - 48 26 67 36 SW 1003,6 16 0,2
13.10.2017 12:00:00 14,4 14,3 - - 52 28 67 36 SSW 1003,0 5 0,0
13.10.2017 11:00:00 14,4 13,7 - - 52 28 72 39 SSW 1003,0 11 0,2
13.10.2017 10:00:00 15,3 14,5 11,7 12,0 54 29 65 35 SW 1002,8 29 0,0
13.10.2017 09:00:00 15,0 14,5 - - 54 29 68 37 SW 1003,0 25 0,4
13.10.2017 08:00:00 15,1 14,4 - - 59 32 80 43 SW 1002,9 4,0 0,2
13.10.2017 07:00:00 15,2 14,4 - - 50 27 80 43 SW 1002,8 45 0,2
13.10.2017 06:00:00 15,4 14,0 - - 52 28 67 36 SW 1002,2 45 0,0
13.10.2017 05:00:00 13,2 12,8 - - 34 18 57 31 S 1004,0 12 0,0
13.10.2017 04:00:00 14,1 13,5 - - 46 25 61 33 SW 1004,0 35 0,0
13.10.2017 03:00:00 13,8 12,8 - - 41 22 61 33 SW 1004,9 45 0,0
13.10.2017 02:00:00 12,8 12,3 - - 26 14 - - SSW 1005,5 50 0,0
13.10.2017 01:00:00 11,6 11,0 - - 35 19 - - SSW 1006,5 35 0,0
13.10.2017 00:00:00 11,3 10,2 - - 34 18 46 25 SW 1007,3 30 0,0
12.10.2017 23:00:00 11,1 9,2 - - 39 21 46 25 SSW 1008,0 35 0,0
12.10.2017 22:00:00 11,2 8,3 - - 37 20 48 26 SW 1008,9 40 0,0
12.10.2017 21:00:00 10,8 8,0 - - 31 17 50 27 SW 1008,9 35 0,0
12.10.2017 20:00:00 11,0 7,9 - - 37 20 50 27 SW 1009,3 30 0,0
12.10.2017 19:00:00 10,9 7,7 - - 46 25 65 35 SW 1009,6 28 0,0
12.10.2017 18:00:00 10,9 7,6 - - 31 17 46 25 SW 1009,9 30 0,0
12.10.2017 17:00:00 10,6 8,1 - - 22 12 - - SW 1010,6 29 0,0
12.10.2017 16:00:00 11,0 8,8 - - 18 10 46 25 SSW 1010,9 30 0,0
12.10.2017 15:00:00 10,9 8,3 - - 28 15 - - SW 1010,4 30 0,0
12.10.2017 14:00:00 10,8 7,8 - - 13 7 - - SSW 1010,4 28 0,0
12.10.2017 13:00:00 10,2 7,6 - - 28 15 - - SW 1010,0 30 0,0
12.10.2017 12:00:00 9,6 7,0 - - 31 17 - - SW 1009,4 45 0,0
12.10.2017 11:00:00 9,3 6,9 - - 22 12 - - SW 1009,1 26 0,0
12.10.2017 10:00:00 9,3 6,3 11,7 12,0 18 10 - - SW 1008,2 40 0,0
12.10.2017 09:00:00 7,7 5,8 - - 29 16 - - WSW 1007,2 45 0,0
12.10.2017 08:00:00 6,9 5,2 - - 37 20 46 25 WSW 1006,3 30 0,0
12.10.2017 07:00:00 6,8 5,0 - - 35 19 50 27 WSW 1005,4 40 0,0
12.10.2017 06:00:00 6,8 4,7 - - 39 21 52 28 WSW 1004,4 30 0,0
12.10.2017 05:00:00 6,6 4,6 - - 37 20 52 28 WSW 1003,9 40 0,0
12.10.2017 04:00:00 6,4 4,0 - - 31 17 52 28 WSW 1003,3 45 0,0

tt = Température de l'air
td = dewpoint
tt -20cm = Température de l'air -20cm
tt -100cm = Température de l'air -100cm
ff = Vitesse du vent
fx = gusts
dd = Direction du vent
ppp = reduced air pressure
vv = visibility
rr = Quantités de précipitations

stations d'obs. à proximité